Time,TemperatureF,DewpointF,PressureIn,WindDirection,WindDirectionDegrees,WindSpeedMPH,WindSpeedGustMPH,Humidity,HourlyPrecipIn,Conditions,Clouds,dailyrainin,SoftwareType,DateUTC
2013-08-23 00:01:00,60.1,53.6,29.64,East,90,0.4,0.4,79,0.00,,,0.00,WUHU216HW,2013-08-23 05:01:00,
2013-08-23 00:06:00,60.1,53.6,29.65,SSE,158,1.1,1.1,79,0.00,,,0.00,WUHU216HW,2013-08-23 05:06:00,
2013-08-23 00:11:00,59.9,53.5,29.65,SSW,203,1.3,1.3,79,0.00,,,0.00,WUHU216HW,2013-08-23 05:11:00,
2013-08-23 00:16:00,59.8,53.3,29.65,SSW,203,0.7,1.3,79,0.00,,,0.00,WUHU216HW,2013-08-23 05:16:00,
2013-08-23 00:21:00,59.8,53.6,29.65,SSW,203,1.6,1.6,80,0.00,,,0.00,WUHU216HW,2013-08-23 05:21:00,
2013-08-23 00:26:00,59.8,53.6,29.65,SSW,203,0.4,1.6,80,0.00,,,0.00,WUHU216HW,2013-08-23 05:26:00,
2013-08-23 00:31:00,59.4,53.3,29.64,SSW,203,1.6,1.6,80,0.00,,,0.00,WUHU216HW,2013-08-23 05:31:00,
2013-08-23 00:36:00,59.4,53.3,29.64,SSW,203,1.8,1.8,80,0.00,,,0.00,WUHU216HW,2013-08-23 05:36:00,
2013-08-23 00:41:00,59.6,53.5,29.65,SSW,203,1.3,1.8,80,0.00,,,0.00,WUHU216HW,2013-08-23 05:41:00,
2013-08-23 00:46:00,59.6,53.5,29.64,SSW,203,1.6,1.8,80,0.00,,,0.00,WUHU216HW,2013-08-23 05:46:00,
2013-08-23 00:51:00,59.6,53.1,29.64,SSW,203,1.6,1.6,79,0.00,,,0.00,WUHU216HW,2013-08-23 05:51:00,
2013-08-23 00:56:00,59.8,53.3,29.64,SE,135,0.7,1.6,79,0.00,,,0.00,WUHU216HW,2013-08-23 05:56:00,
2013-08-23 01:01:00,59.8,53.3,29.64,SE,135,0.0,1.6,79,0.00,,,0.00,WUHU216HW,2013-08-23 06:01:00,
2013-08-23 01:06:00,59.8,53.3,29.64,SE,135,0.7,0.7,79,0.00,,,0.00,WUHU216HW,2013-08-23 06:06:00,
2013-08-23 01:11:00,59.8,53.3,29.64,SE,135,0.0,0.7,79,0.00,,,0.00,WUHU216HW,2013-08-23 06:11:00,
2013-08-23 01:16:00,59.8,53.3,29.64,SE,135,0.0,0.7,79,0.00,,,0.00,WUHU216HW,2013-08-23 06:16:00,
2013-08-23 01:21:00,59.8,53.3,29.64,SE,135,0.0,0.0,79,0.00,,,0.00,WUHU216HW,2013-08-23 06:21:00,
2013-08-23 01:26:00,59.6,53.1,29.64,SE,135,0.2,0.2,79,0.00,,,0.00,WUHU216HW,2013-08-23 06:26:00,
2013-08-23 01:31:00,59.6,53.1,29.64,SE,135,0.0,0.2,79,0.00,,,0.00,WUHU216HW,2013-08-23 06:31:00,
2013-08-23 01:36:00,59.4,52.9,29.64,SE,135,0.0,0.2,79,0.00,,,0.00,WUHU216HW,2013-08-23 06:36:00,
2013-08-23 01:41:00,59.0,52.6,29.64,SE,135,0.0,0.0,79,0.00,,,0.00,WUHU216HW,2013-08-23 06:41:00,
2013-08-23 01:46:00,58.7,52.2,29.64,SE,135,0.0,0.0,79,0.00,,,0.00,WUHU216HW,2013-08-23 06:46:00,
2013-08-23 01:51:00,58.5,52.4,29.64,SE,135,0.0,0.0,80,0.00,,,0.00,WUHU216HW,2013-08-23 06:51:00,
2013-08-23 01:56:00,58.1,52.0,29.64,SE,135,0.9,0.9,80,0.00,,,0.00,WUHU216HW,2013-08-23 06:56:00,
2013-08-23 02:01:00,58.0,51.8,29.64,SE,135,0.4,0.9,80,0.00,,,0.00,WUHU216HW,2013-08-23 07:01:00,
2013-08-23 02:06:00,58.0,52.2,29.64,SE,135,0.2,0.9,81,0.00,,,0.00,WUHU216HW,2013-08-23 07:06:00,
2013-08-23 02:11:00,58.0,52.2,29.64,SE,135,0.4,0.4,81,0.00,,,0.00,WUHU216HW,2013-08-23 07:11:00,
2013-08-23 02:16:00,57.8,52.0,29.64,SE,135,0.0,0.4,81,0.00,,,0.00,WUHU216HW,2013-08-23 07:16:00,
2013-08-23 02:21:00,57.8,52.0,29.64,SE,135,0.9,0.9,81,0.00,,,0.00,WUHU216HW,2013-08-23 07:21:00,
2013-08-23 02:26:00,57.8,52.0,29.64,SE,135,0.0,0.9,81,0.00,,,0.00,WUHU216HW,2013-08-23 07:26:00,
2013-08-23 02:31:00,57.8,52.0,29.65,SE,135,0.9,0.9,81,0.00,,,0.00,WUHU216HW,2013-08-23 07:31:00,
2013-08-23 02:36:00,57.8,52.0,29.65,SE,135,0.7,0.9,81,0.00,,,0.00,WUHU216HW,2013-08-23 07:36:00,
2013-08-23 02:41:00,57.6,51.9,29.65,SE,135,0.0,0.9,81,0.00,,,0.00,WUHU216HW,2013-08-23 07:41:00,
2013-08-23 02:46:00,57.6,51.9,29.65,SE,135,0.0,0.4,81,0.00,,,0.00,WUHU216HW,2013-08-23 07:46:00,
2013-08-23 02:51:00,57.1,51.6,29.65,SE,135,0.0,0.0,82,0.00,,,0.00,WUHU216HW,2013-08-23 07:51:00,
2013-08-23 02:56:00,56.9,51.4,29.65,SE,135,0.9,0.9,82,0.00,,,0.00,WUHU216HW,2013-08-23 07:56:00,
2013-08-23 03:01:00,56.7,51.6,29.65,SE,135,0.0,0.9,83,0.00,,,0.00,WUHU216HW,2013-08-23 08:01:00,
2013-08-23 03:06:00,56.5,51.4,29.65,SE,135,0.0,0.9,83,0.00,,,0.00,WUHU216HW,2013-08-23 08:06:00,
2013-08-23 03:11:00,56.5,51.4,29.65,SE,135,0.0,0.0,83,0.00,,,0.00,WUHU216HW,2013-08-23 08:11:00,
2013-08-23 03:16:00,56.5,51.0,29.65,SE,135,1.1,1.1,82,0.00,,,0.00,WUHU216HW,2013-08-23 08:16:00,
2013-08-23 03:21:00,56.2,50.7,29.66,ESE,113,0.0,1.1,82,0.00,,,0.00,WUHU216HW,2013-08-23 08:21:00,
2013-08-23 03:26:00,56.2,50.7,29.65,ESE,113,0.0,1.1,82,0.00,,,0.00,WUHU216HW,2013-08-23 08:26:00,
2013-08-23 03:31:00,56.2,50.7,29.66,ESE,113,0.2,0.2,82,0.00,,,0.00,WUHU216HW,2013-08-23 08:31:00,
2013-08-23 03:36:00,56.2,50.7,29.65,ESE,113,0.0,0.2,82,0.00,,,0.00,WUHU216HW,2013-08-23 08:36:00,
2013-08-23 03:41:00,56.2,51.0,29.66,East,90,0.7,0.7,83,0.00,,,0.00,WUHU216HW,2013-08-23 08:41:00,
2013-08-23 03:46:00,56.2,50.7,29.66,East,90,0.0,0.7,82,0.00,,,0.00,WUHU216HW,2013-08-23 08:46:00,
2013-08-23 03:51:00,56.0,50.9,29.65,East,90,0.0,0.7,83,0.00,,,0.00,WUHU216HW,2013-08-23 08:51:00,
2013-08-23 03:56:00,55.8,50.7,29.65,East,90,0.4,0.4,83,0.00,,,0.00,WUHU216HW,2013-08-23 08:56:00,
2013-08-23 04:01:00,55.8,50.7,29.65,East,90,0.0,0.4,83,0.00,,,0.00,WUHU216HW,2013-08-23 09:01:00,
2013-08-23 04:06:00,55.6,50.5,29.66,East,90,0.0,0.4,83,0.00,,,0.00,WUHU216HW,2013-08-23 09:06:00,
2013-08-23 04:11:00,55.4,50.3,29.66,East,90,0.4,0.4,83,0.00,,,0.00,WUHU216HW,2013-08-23 09:11:00,
2013-08-23 04:16:00,55.4,50.3,29.66,East,90,0.4,0.4,83,0.00,,,0.00,WUHU216HW,2013-08-23 09:16:00,
2013-08-23 04:21:00,55.4,50.3,29.66,East,90,0.0,0.4,83,0.00,,,0.00,WUHU216HW,2013-08-23 09:21:00,
2013-08-23 04:26:00,55.4,50.3,29.66,NE,45,0.0,0.4,83,0.00,,,0.00,WUHU216HW,2013-08-23 09:26:00,
2013-08-23 04:31:00,55.4,50.3,29.66,NE,45,0.4,0.4,83,0.00,,,0.00,WUHU216HW,2013-08-23 09:31:00,
2013-08-23 04:36:00,55.3,50.1,29.66,NE,45,0.0,0.7,83,0.00,,,0.00,WUHU216HW,2013-08-23 09:36:00,
2013-08-23 04:41:00,55.3,50.1,29.66,NE,45,0.0,0.7,83,0.00,,,0.00,WUHU216HW,2013-08-23 09:41:00,
2013-08-23 04:46:00,55.3,50.1,29.66,NE,45,1.1,1.1,83,0.00,,,0.00,WUHU216HW,2013-08-23 09:46:00,
2013-08-23 04:51:00,55.1,50.3,29.66,NE,45,0.4,1.1,84,0.00,,,0.00,WUHU216HW,2013-08-23 09:51:00,
2013-08-23 04:56:00,54.9,50.1,29.66,NE,45,0.4,1.1,84,0.00,,,0.00,WUHU216HW,2013-08-23 09:56:00,
2013-08-23 05:01:00,55.1,50.3,29.66,NE,45,0.7,0.7,84,0.00,,,0.00,WUHU216HW,2013-08-23 10:01:00,
2013-08-23 05:06:00,54.9,50.1,29.67,NE,45,0.0,0.7,84,0.00,,,0.00,WUHU216HW,2013-08-23 10:06:00,
2013-08-23 05:11:00,54.7,50.0,29.67,NE,45,0.0,0.7,84,0.00,,,0.00,WUHU216HW,2013-08-23 10:11:00,
2013-08-23 05:16:00,54.5,49.8,29.67,NE,45,0.0,0.0,84,0.00,,,0.00,WUHU216HW,2013-08-23 10:16:00,
2013-08-23 05:21:00,54.7,50.0,29.67,NE,45,0.7,0.7,84,0.00,,,0.00,WUHU216HW,2013-08-23 10:21:00,
2013-08-23 05:26:00,54.5,49.8,29.67,NE,45,0.4,0.7,84,0.00,,,0.00,WUHU216HW,2013-08-23 10:26:00,
2013-08-23 05:31:00,54.5,49.8,29.68,NE,45,0.0,0.7,84,0.00,,,0.00,WUHU216HW,2013-08-23 10:31:00,
2013-08-23 05:36:00,54.4,49.6,29.67,East,90,0.4,0.4,84,0.00,,,0.00,WUHU216HW,2013-08-23 10:36:00,
2013-08-23 05:41:00,54.2,49.4,29.67,East,90,0.4,0.4,84,0.00,,,0.00,WUHU216HW,2013-08-23 10:41:00,
2013-08-23 05:46:00,54.0,49.2,29.67,East,90,0.0,0.4,84,0.00,,,0.00,WUHU216HW,2013-08-23 10:46:00,
2013-08-23 05:51:00,53.8,49.4,29.68,East,90,0.0,0.4,85,0.00,,,0.00,WUHU216HW,2013-08-23 10:51:00,
2013-08-23 05:56:00,53.8,49.4,29.68,East,90,0.0,0.0,85,0.00,,,0.00,WUHU216HW,2013-08-23 10:56:00,
2013-08-23 06:01:00,54.0,49.6,29.68,East,90,0.0,0.0,85,0.00,,,0.00,WUHU216HW,2013-08-23 11:01:00,
2013-08-23 06:06:00,53.6,49.2,29.68,East,90,0.0,0.0,85,0.00,,,0.00,WUHU216HW,2013-08-23 11:06:00,
2013-08-23 06:11:00,53.5,49.3,29.68,East,90,0.0,0.0,86,0.00,,,0.00,WUHU216HW,2013-08-23 11:11:00,
2013-08-23 06:16:00,53.3,49.1,29.68,East,90,0.0,0.0,86,0.00,,,0.00,WUHU216HW,2013-08-23 11:16:00,
2013-08-23 06:21:00,53.6,49.5,29.68,East,90,0.0,0.2,86,0.00,,,0.00,WUHU216HW,2013-08-23 11:21:00,
2013-08-23 06:26:00,53.8,49.7,29.68,East,90,0.2,0.2,86,0.00,,,0.00,WUHU216HW,2013-08-23 11:26:00,
2013-08-23 06:31:00,54.0,49.9,29.69,East,90,0.4,0.4,86,0.00,,,0.00,WUHU216HW,2013-08-23 11:31:00,
2013-08-23 06:36:00,54.5,50.4,29.69,East,90,0.0,1.1,86,0.00,,,0.00,WUHU216HW,2013-08-23 11:36:00,
2013-08-23 06:41:00,54.9,50.8,29.69,East,90,0.0,1.1,86,0.00,,,0.00,WUHU216HW,2013-08-23 11:41:00,
2013-08-23 06:46:00,55.1,51.0,29.69,East,90,0.4,0.4,86,0.00,,,0.00,WUHU216HW,2013-08-23 11:46:00,
2013-08-23 06:51:00,55.3,51.1,29.69,East,90,0.7,0.7,86,0.00,,,0.00,WUHU216HW,2013-08-23 11:51:00,
2013-08-23 06:56:00,55.6,51.5,29.69,East,90,0.0,0.7,86,0.00,,,0.00,WUHU216HW,2013-08-23 11:56:00,
2013-08-23 07:01:00,55.8,51.7,29.70,East,90,0.4,0.7,86,0.00,,,0.00,WUHU216HW,2013-08-23 12:01:00,
2013-08-23 07:06:00,56.2,51.7,29.70,NE,45,0.0,1.1,85,0.00,,,0.00,WUHU216HW,2013-08-23 12:06:00,
2013-08-23 07:11:00,56.5,52.0,29.70,NE,45,0.2,1.1,85,0.00,,,0.00,WUHU216HW,2013-08-23 12:11:00,
2013-08-23 07:16:00,56.7,52.2,29.70,NE,45,0.2,0.2,85,0.00,,,0.00,WUHU216HW,2013-08-23 12:16:00,
2013-08-23 07:21:00,57.2,52.7,29.70,NE,45,0.9,0.9,85,0.00,,,0.00,WUHU216HW,2013-08-23 12:21:00,
2013-08-23 07:26:00,57.4,53.3,29.70,NE,45,0.7,0.9,86,0.00,,,0.00,WUHU216HW,2013-08-23 12:26:00,
2013-08-23 07:31:00,57.8,53.7,29.70,NE,45,1.1,1.1,86,0.00,,,0.00,WUHU216HW,2013-08-23 12:31:00,
2013-08-23 07:36:00,58.7,54.6,29.70,NE,45,1.1,1.3,86,0.00,,,0.00,WUHU216HW,2013-08-23 12:36:00,
2013-08-23 07:41:00,59.0,54.9,29.70,NE,45,1.1,1.3,86,0.00,,,0.00,WUHU216HW,2013-08-23 12:41:00,
2013-08-23 07:46:00,59.6,55.1,29.71,NE,45,0.4,1.1,85,0.00,,,0.00,WUHU216HW,2013-08-23 12:46:00,
2013-08-23 07:51:00,60.3,55.8,29.70,NE,45,0.4,1.1,85,0.00,,,0.00,WUHU216HW,2013-08-23 12:51:00,
2013-08-23 07:56:00,60.7,56.2,29.70,NE,45,1.1,1.1,85,0.00,,,0.00,WUHU216HW,2013-08-23 12:56:00,
2013-08-23 08:01:00,61.0,56.2,29.70,NE,45,3.1,3.1,84,0.00,,,0.00,WUHU216HW,2013-08-23 13:01:00,
2013-08-23 08:06:00,61.7,56.9,29.70,NE,45,1.1,3.1,84,0.00,,,0.00,WUHU216HW,2013-08-23 13:06:00,
2013-08-23 08:11:00,62.1,56.9,29.70,North,0,1.1,3.1,83,0.00,,,0.00,WUHU216HW,2013-08-23 13:11:00,
2013-08-23 08:16:00,62.5,57.3,29.71,NE,45,0.9,1.1,83,0.00,,,0.00,WUHU216HW,2013-08-23 13:16:00,
2013-08-23 08:21:00,63.0,57.7,29.71,ENE,68,0.4,1.1,83,0.00,,,0.00,WUHU216HW,2013-08-23 13:21:00,
2013-08-23 08:26:00,63.4,58.1,29.70,ESE,113,2.5,2.5,83,0.00,,,0.00,WUHU216HW,2013-08-23 13:26:00,
2013-08-23 08:31:00,63.7,58.2,29.70,ENE,68,2.5,2.5,82,0.00,,,0.00,WUHU216HW,2013-08-23 13:31:00,
2013-08-23 08:36:00,64.3,59.0,29.70,NE,45,1.6,2.5,83,0.00,,,0.00,WUHU216HW,2013-08-23 13:36:00,
2013-08-23 08:41:00,64.6,59.3,29.70,ENE,68,0.4,2.5,83,0.00,,,0.00,WUHU216HW,2013-08-23 13:41:00,
2013-08-23 08:46:00,65.0,59.7,29.70,North,0,2.5,2.5,83,0.00,,,0.00,WUHU216HW,2013-08-23 13:46:00,
2013-08-23 08:51:00,65.3,59.7,29.70,NE,45,1.1,2.5,82,0.00,,,0.00,WUHU216HW,2013-08-23 13:51:00,
2013-08-23 08:56:00,65.7,60.4,29.70,ENE,68,0.9,2.5,83,0.00,,,0.00,WUHU216HW,2013-08-23 13:56:00,
2013-08-23 09:01:00,66.1,60.8,29.71,East,90,0.4,1.1,83,0.00,,,0.00,WUHU216HW,2013-08-23 14:01:00,
2013-08-23 09:06:00,67.0,61.3,29.71,SSE,158,1.1,1.1,82,0.00,,,0.00,WUHU216HW,2013-08-23 14:06:00,
2013-08-23 09:11:00,67.3,61.7,29.71,NE,45,2.5,2.5,82,0.00,,,0.00,WUHU216HW,2013-08-23 14:11:00,
2013-08-23 09:16:00,67.7,62.0,29.71,ESE,113,1.1,2.5,82,0.00,,,0.00,WUHU216HW,2013-08-23 14:16:00,
2013-08-23 09:21:00,68.6,62.6,29.70,ESE,113,1.1,2.5,81,0.00,,,0.00,WUHU216HW,2013-08-23 14:21:00,
2013-08-23 09:26:00,68.9,62.9,29.71,ENE,68,1.1,1.1,81,0.00,,,0.00,WUHU216HW,2013-08-23 14:26:00,
2013-08-23 09:31:00,69.1,63.1,29.71,SE,135,1.6,1.6,81,0.00,,,0.00,WUHU216HW,2013-08-23 14:31:00,
2013-08-23 09:36:00,69.8,63.4,29.70,ENE,68,2.5,2.5,80,0.00,,,0.00,WUHU216HW,2013-08-23 14:36:00,
2013-08-23 09:41:00,70.2,63.7,29.71,ESE,113,2.7,2.7,80,0.00,,,0.00,WUHU216HW,2013-08-23 14:41:00,
2013-08-23 09:46:00,70.6,63.4,29.71,ESE,113,1.8,2.7,78,0.00,,,0.00,WUHU216HW,2013-08-23 14:46:00,
2013-08-23 09:51:00,71.3,63.6,29.71,ESE,113,2.0,3.6,77,0.00,,,0.00,WUHU216HW,2013-08-23 14:51:00,
2013-08-23 09:56:00,71.5,63.5,29.71,ESE,113,2.9,3.6,76,0.00,,,0.00,WUHU216HW,2013-08-23 14:56:00,
2013-08-23 10:01:00,71.8,63.5,29.71,SE,135,3.4,3.4,75,0.00,,,0.00,WUHU216HW,2013-08-23 15:01:00,
2013-08-23 10:06:00,72.4,64.0,29.71,ENE,68,1.6,3.4,75,0.00,,,0.00,WUHU216HW,2013-08-23 15:06:00,
2013-08-23 10:11:00,72.4,62.8,29.71,ENE,68,0.9,3.4,72,0.00,,,0.00,WUHU216HW,2013-08-23 15:11:00,
2013-08-23 10:16:00,72.7,63.6,29.71,East,90,1.1,1.6,73,0.00,,,0.00,WUHU216HW,2013-08-23 15:16:00,
2013-08-23 10:21:00,73.3,63.7,29.71,ESE,113,1.8,2.2,72,0.00,,,0.00,WUHU216HW,2013-08-23 15:21:00,
2013-08-23 10:26:00,73.4,63.9,29.71,SE,135,1.8,2.2,72,0.00,,,0.00,WUHU216HW,2013-08-23 15:26:00,
2013-08-23 10:31:00,73.8,63.9,29.71,SE,135,3.1,3.1,71,0.00,,,0.00,WUHU216HW,2013-08-23 15:31:00,
2013-08-23 10:36:00,74.2,64.2,29.71,SE,135,1.8,3.1,71,0.00,,,0.00,WUHU216HW,2013-08-23 15:36:00,
2013-08-23 10:41:00,74.3,64.0,29.71,ESE,113,1.8,3.1,70,0.00,,,0.00,WUHU216HW,2013-08-23 15:41:00,
2013-08-23 10:46:00,74.5,63.3,29.71,ENE,68,3.4,3.4,68,0.00,,,0.00,WUHU216HW,2013-08-23 15:46:00,
2013-08-23 10:51:00,74.5,63.3,29.71,ESE,113,2.5,3.4,68,0.00,,,0.00,WUHU216HW,2013-08-23 15:51:00,
2013-08-23 10:56:00,74.9,63.6,29.71,SE,135,1.1,3.4,68,0.00,,,0.00,WUHU216HW,2013-08-23 15:56:00,
2013-08-23 11:01:00,75.2,63.9,29.71,South,180,1.8,2.5,68,0.00,,,0.00,WUHU216HW,2013-08-23 16:01:00,
2013-08-23 11:06:00,75.8,63.6,29.71,SE,135,2.5,3.4,66,0.00,,,0.00,WUHU216HW,2013-08-23 16:06:00,
2013-08-23 11:11:00,76.0,63.7,29.71,ESE,113,2.9,3.4,66,0.00,,,0.00,WUHU216HW,2013-08-23 16:11:00,
2013-08-23 11:16:00,76.1,63.5,29.71,SE,135,1.6,2.9,65,0.00,,,0.00,WUHU216HW,2013-08-23 16:16:00,
2013-08-23 11:21:00,76.5,63.4,29.71,SE,135,2.5,3.4,64,0.00,,,0.00,WUHU216HW,2013-08-23 16:21:00,
2013-08-23 11:26:00,76.7,63.1,29.71,ESE,113,1.1,3.4,63,0.00,,,0.00,WUHU216HW,2013-08-23 16:26:00,
2013-08-23 11:31:00,76.9,63.3,29.71,SE,135,3.4,3.4,63,0.00,,,0.00,WUHU216HW,2013-08-23 16:31:00,
2013-08-23 11:36:00,77.2,62.7,29.70,SE,135,1.8,3.4,61,0.00,,,0.00,WUHU216HW,2013-08-23 16:36:00,
2013-08-23 11:41:00,77.4,62.9,29.70,SE,135,2.0,3.4,61,0.00,,,0.00,WUHU216HW,2013-08-23 16:41:00,
2013-08-23 11:46:00,77.8,62.8,29.70,ESE,113,2.2,2.2,60,0.00,,,0.00,WUHU216HW,2013-08-23 16:46:00,
2013-08-23 11:51:00,78.1,62.2,29.70,SE,135,3.1,3.1,58,0.00,,,0.00,WUHU216HW,2013-08-23 16:51:00,
2013-08-23 11:56:00,78.1,62.2,29.70,SE,135,3.1,3.1,58,0.00,,,0.00,WUHU216HW,2013-08-23 16:56:00,
2013-08-23 12:01:00,78.3,62.4,29.71,ESE,113,3.6,3.6,58,0.00,,,0.00,WUHU216HW,2013-08-23 17:01:00,
2013-08-23 12:06:00,78.5,62.0,29.70,SE,135,2.5,3.6,57,0.00,,,0.00,WUHU216HW,2013-08-23 17:06:00,
2013-08-23 12:11:00,78.7,62.2,29.70,ENE,68,3.1,3.1,57,0.00,,,0.00,WUHU216HW,2013-08-23 17:11:00,
2013-08-23 12:16:00,78.8,62.4,29.70,ESE,113,2.0,3.4,57,0.00,,,0.00,WUHU216HW,2013-08-23 17:16:00,
2013-08-23 12:21:00,78.8,62.4,29.70,ESE,113,2.5,3.4,57,0.00,,,0.00,WUHU216HW,2013-08-23 17:21:00,
2013-08-23 12:26:00,79.0,62.0,29.70,ESE,113,2.0,2.5,56,0.00,,,0.00,WUHU216HW,2013-08-23 17:26:00,
2013-08-23 12:31:00,79.2,62.1,29.69,ESE,113,1.3,3.8,56,0.00,,,0.00,WUHU216HW,2013-08-23 17:31:00,
2013-08-23 12:36:00,79.6,62.5,29.69,ESE,113,3.4,3.8,56,0.00,,,0.00,WUHU216HW,2013-08-23 17:36:00,
2013-08-23 12:41:00,79.6,61.9,29.69,South,180,2.9,3.4,55,0.00,,,0.00,WUHU216HW,2013-08-23 17:41:00,
2013-08-23 12:46:00,79.6,60.9,29.69,ENE,68,0.9,3.4,53,0.00,,,0.00,WUHU216HW,2013-08-23 17:46:00,
2013-08-23 12:51:00,79.6,60.9,29.69,East,90,3.6,3.6,53,0.00,,,0.00,WUHU216HW,2013-08-23 17:51:00,
2013-08-23 12:56:00,79.7,61.6,29.69,ESE,113,3.8,3.8,54,0.00,,,0.00,WUHU216HW,2013-08-23 17:56:00,
2013-08-23 13:01:00,79.9,62.8,29.69,ESE,113,4.5,4.5,56,0.00,,,0.00,WUHU216HW,2013-08-23 18:01:00,
2013-08-23 13:06:00,80.1,62.5,29.69,SE,135,1.8,4.5,55,0.00,,,0.00,WUHU216HW,2013-08-23 18:06:00,
2013-08-23 13:11:00,80.3,62.6,29.69,SE,135,1.8,4.5,55,0.00,,,0.00,WUHU216HW,2013-08-23 18:11:00,
2013-08-23 13:16:00,80.5,62.7,29.69,ESE,113,2.5,2.5,55,0.00,,,0.00,WUHU216HW,2013-08-23 18:16:00,
2013-08-23 13:21:00,80.5,62.2,29.69,ESE,113,1.8,2.5,54,0.00,,,0.00,WUHU216HW,2013-08-23 18:21:00,
2013-08-23 13:26:00,80.6,62.9,29.69,SE,135,1.8,2.5,55,0.00,,,0.00,WUHU216HW,2013-08-23 18:26:00,
2013-08-23 13:31:00,80.8,62.6,29.69,SSE,158,2.0,2.5,54,0.00,,,0.00,WUHU216HW,2013-08-23 18:31:00,
2013-08-23 13:36:00,80.6,61.8,29.68,ENE,68,2.9,2.9,53,0.00,,,0.00,WUHU216HW,2013-08-23 18:36:00,
2013-08-23 13:41:00,80.6,59.7,29.68,North,0,3.1,3.1,49,0.00,,,0.00,WUHU216HW,2013-08-23 18:41:00,
2013-08-23 13:46:00,80.3,62.1,29.68,SW,225,2.2,3.6,54,0.00,,,0.00,WUHU216HW,2013-08-23 18:46:00,
2013-08-23 13:51:00,80.6,62.4,29.68,SE,135,2.2,3.6,54,0.00,,,0.00,WUHU216HW,2013-08-23 18:51:00,
2013-08-23 13:56:00,80.8,62.0,29.68,SE,135,1.8,2.2,53,0.00,,,0.00,WUHU216HW,2013-08-23 18:56:00,
2013-08-23 14:01:00,80.8,61.5,29.68,ENE,68,3.6,3.6,52,0.00,,,0.00,WUHU216HW,2013-08-23 19:01:00,
2013-08-23 14:06:00,80.8,62.6,29.68,NNE,23,4.5,4.5,54,0.00,,,0.00,WUHU216HW,2013-08-23 19:06:00,
2013-08-23 14:11:00,81.0,61.1,29.68,North,0,1.3,4.5,51,0.00,,,0.00,WUHU216HW,2013-08-23 19:11:00,
2013-08-23 14:16:00,81.2,62.9,29.67,ESE,113,2.5,4.5,54,0.00,,,0.00,WUHU216HW,2013-08-23 19:16:00,
2013-08-23 14:21:00,81.4,62.6,29.68,ESE,113,2.5,2.5,53,0.00,,,0.00,WUHU216HW,2013-08-23 19:21:00,
2013-08-23 14:26:00,81.4,62.6,29.67,ESE,113,1.8,2.5,53,0.00,,,0.00,WUHU216HW,2013-08-23 19:26:00,
2013-08-23 14:31:00,81.7,62.8,29.67,ESE,113,2.7,2.7,53,0.00,,,0.00,WUHU216HW,2013-08-23 19:31:00,
2013-08-23 14:36:00,81.7,63.4,29.67,East,90,3.8,3.8,54,0.00,,,0.00,WUHU216HW,2013-08-23 19:36:00,
2013-08-23 14:41:00,81.7,62.8,29.67,SE,135,2.2,3.8,53,0.00,,,0.00,WUHU216HW,2013-08-23 19:41:00,
2013-08-23 14:46:00,82.1,63.2,29.67,NNE,23,2.5,3.8,53,0.00,,,0.00,WUHU216HW,2013-08-23 19:46:00,
2013-08-23 14:51:00,81.7,62.3,29.67,SSW,203,2.5,2.5,52,0.00,,,0.00,WUHU216HW,2013-08-23 19:51:00,
2013-08-23 14:56:00,81.5,62.6,29.67,SE,135,2.2,2.5,53,0.00,,,0.00,WUHU216HW,2013-08-23 19:56:00,
2013-08-23 15:01:00,81.4,62.6,29.67,SE,135,2.2,2.5,53,0.00,,,0.00,WUHU216HW,2013-08-23 20:01:00,
2013-08-23 15:06:00,81.2,62.4,29.67,East,90,1.6,4.0,53,0.00,,,0.00,WUHU216HW,2013-08-23 20:06:00,
2013-08-23 15:11:00,81.0,62.2,29.67,SE,135,2.7,4.0,53,0.00,,,0.00,WUHU216HW,2013-08-23 20:11:00,
2013-08-23 15:16:00,80.8,62.0,29.67,SE,135,1.8,2.7,53,0.00,,,0.00,WUHU216HW,2013-08-23 20:16:00,
2013-08-23 15:21:00,80.6,61.4,29.66,SE,135,0.9,2.7,52,0.00,,,0.00,WUHU216HW,2013-08-23 20:21:00,
2013-08-23 15:26:00,80.6,61.4,29.67,SE,135,2.2,2.2,52,0.00,,,0.00,WUHU216HW,2013-08-23 20:26:00,
2013-08-23 15:31:00,80.5,61.8,29.66,ESE,113,1.3,2.5,53,0.00,,,0.00,WUHU216HW,2013-08-23 20:31:00,
2013-08-23 15:36:00,80.5,61.8,29.66,SE,135,2.2,2.5,53,0.00,,,0.00,WUHU216HW,2013-08-23 20:36:00,
2013-08-23 15:41:00,80.5,61.8,29.66,ESE,113,1.1,2.2,53,0.00,,,0.00,WUHU216HW,2013-08-23 20:41:00,
2013-08-23 15:46:00,80.3,61.0,29.66,ESE,113,1.1,2.2,52,0.00,,,0.00,WUHU216HW,2013-08-23 20:46:00,
2013-08-23 15:51:00,80.1,60.8,29.66,ESE,113,1.8,1.8,52,0.00,,,0.00,WUHU216HW,2013-08-23 20:51:00,
2013-08-23 15:56:00,79.9,60.2,29.66,SW,225,1.1,1.8,51,0.00,,,0.00,WUHU216HW,2013-08-23 20:56:00,
2013-08-23 16:01:00,79.6,61.4,29.66,ESE,113,3.1,3.1,54,0.00,,,0.00,WUHU216HW,2013-08-23 21:01:00,
2013-08-23 16:06:00,79.7,61.6,29.66,ESE,113,1.6,3.1,54,0.00,,,0.00,WUHU216HW,2013-08-23 21:06:00,
2013-08-23 16:11:00,79.6,61.4,29.66,SE,135,2.5,3.1,54,0.00,,,0.00,WUHU216HW,2013-08-23 21:11:00,
2013-08-23 16:16:00,79.6,61.4,29.66,SE,135,2.5,2.9,54,0.00,,,0.00,WUHU216HW,2013-08-23 21:16:00,
2013-08-23 16:21:00,79.6,61.4,29.66,ESE,113,1.8,2.9,54,0.00,,,0.00,WUHU216HW,2013-08-23 21:21:00,
2013-08-23 16:26:00,79.6,61.4,29.66,SE,135,2.5,2.5,54,0.00,,,0.00,WUHU216HW,2013-08-23 21:26:00,
2013-08-23 16:31:00,79.4,60.8,29.66,ESE,113,2.0,2.5,53,0.00,,,0.00,WUHU216HW,2013-08-23 21:31:00,
2013-08-23 16:36:00,79.4,60.8,29.66,SE,135,2.5,2.5,53,0.00,,,0.00,WUHU216HW,2013-08-23 21:36:00,
2013-08-23 16:41:00,79.2,60.6,29.66,SE,135,1.8,2.5,53,0.00,,,0.00,WUHU216HW,2013-08-23 21:41:00,
2013-08-23 16:46:00,78.8,60.2,29.66,East,90,1.1,2.5,53,0.00,,,0.00,WUHU216HW,2013-08-23 21:46:00,
2013-08-23 16:51:00,78.8,60.8,29.66,ESE,113,1.1,1.8,54,0.00,,,0.00,WUHU216HW,2013-08-23 21:51:00,
2013-08-23 16:56:00,78.7,60.1,29.66,ESE,113,0.2,1.1,53,0.00,,,0.00,WUHU216HW,2013-08-23 21:56:00,
2013-08-23 17:01:00,78.8,60.8,29.66,ESE,113,2.5,2.5,54,0.00,,,0.00,WUHU216HW,2013-08-23 22:01:00,
2013-08-23 17:06:00,78.8,61.3,29.66,ESE,113,1.8,2.5,55,0.00,,,0.00,WUHU216HW,2013-08-23 22:06:00,
2013-08-23 17:11:00,78.8,61.3,29.66,SE,135,1.6,2.5,55,0.00,,,0.00,WUHU216HW,2013-08-23 22:11:00,
2013-08-23 17:16:00,78.7,61.1,29.66,SE,135,1.8,3.1,55,0.00,,,0.00,WUHU216HW,2013-08-23 22:16:00,
2013-08-23 17:21:00,78.7,60.6,29.66,SE,135,2.5,3.1,54,0.00,,,0.00,WUHU216HW,2013-08-23 22:21:00,
2013-08-23 17:26:00,78.7,61.1,29.66,SSE,158,2.7,2.7,55,0.00,,,0.00,WUHU216HW,2013-08-23 22:26:00,
2013-08-23 17:31:00,78.8,61.3,29.66,East,90,2.5,2.7,55,0.00,,,0.00,WUHU216HW,2013-08-23 22:31:00,
2013-08-23 17:36:00,78.7,61.7,29.66,ESE,113,2.0,2.5,56,0.00,,,0.00,WUHU216HW,2013-08-23 22:36:00,
2013-08-23 17:41:00,78.5,61.5,29.65,SE,135,2.7,3.8,56,0.00,,,0.00,WUHU216HW,2013-08-23 22:41:00,
2013-08-23 17:46:00,78.1,61.1,29.65,ESE,113,2.7,3.8,56,0.00,,,0.00,WUHU216HW,2013-08-23 22:46:00,
2013-08-23 17:51:00,78.1,61.7,29.65,SE,135,2.0,2.7,57,0.00,,,0.00,WUHU216HW,2013-08-23 22:51:00,
2013-08-23 17:56:00,78.7,62.2,29.66,ESE,113,4.7,4.7,57,0.00,,,0.00,WUHU216HW,2013-08-23 22:56:00,
2013-08-23 18:01:00,78.7,61.7,29.65,SE,135,4.3,4.7,56,0.00,,,0.00,WUHU216HW,2013-08-23 23:01:00,
2013-08-23 18:06:00,78.5,61.5,29.65,SE,135,3.4,4.7,56,0.00,,,0.00,WUHU216HW,2013-08-23 23:06:00,
2013-08-23 18:11:00,77.8,61.3,29.65,SE,135,4.0,4.3,57,0.00,,,0.00,WUHU216HW,2013-08-23 23:11:00,
2013-08-23 18:16:00,76.7,60.8,29.65,SE,135,4.0,4.0,58,0.00,,,0.00,WUHU216HW,2013-08-23 23:16:00,
2013-08-23 18:21:00,76.3,60.9,29.65,SE,135,3.4,4.0,59,0.00,,,0.00,WUHU216HW,2013-08-23 23:21:00,
2013-08-23 18:26:00,75.6,60.9,29.65,SE,135,2.5,4.0,60,0.00,,,0.00,WUHU216HW,2013-08-23 23:26:00,
2013-08-23 18:31:00,75.2,60.5,29.65,ESE,113,3.4,3.4,60,0.00,,,0.00,WUHU216HW,2013-08-23 23:31:00,
2013-08-23 18:36:00,75.1,60.8,29.66,ESE,113,2.5,3.4,61,0.00,,,0.00,WUHU216HW,2013-08-23 23:36:00,
2013-08-23 18:41:00,74.5,60.7,29.65,ESE,113,2.0,3.4,62,0.00,,,0.00,WUHU216HW,2013-08-23 23:41:00,
2013-08-23 18:46:00,74.5,60.7,29.65,ESE,113,2.2,2.5,62,0.00,,,0.00,WUHU216HW,2013-08-23 23:46:00,
2013-08-23 18:51:00,74.2,60.8,29.65,SE,135,2.5,2.5,63,0.00,,,0.00,WUHU216HW,2013-08-23 23:51:00,
2013-08-23 18:56:00,73.8,60.4,29.65,SE,135,2.5,2.5,63,0.00,,,0.00,WUHU216HW,2013-08-23 23:56:00,
2013-08-23 19:01:00,73.6,60.7,29.65,SE,135,1.8,2.5,64,0.00,,,0.00,WUHU216HW,2013-08-24 00:01:00,
2013-08-23 19:06:00,73.3,60.3,29.65,SE,135,2.5,2.5,64,0.00,,,0.00,WUHU216HW,2013-08-24 00:06:00,
2013-08-23 19:11:00,73.1,60.6,29.65,SE,135,1.1,2.5,65,0.00,,,0.00,WUHU216HW,2013-08-24 00:11:00,
2013-08-23 19:16:00,72.9,60.4,29.65,SE,135,1.3,2.5,65,0.00,,,0.00,WUHU216HW,2013-08-24 00:16:00,
2013-08-23 19:21:00,72.5,60.0,29.65,SE,135,1.8,1.8,65,0.00,,,0.00,WUHU216HW,2013-08-24 00:21:00,
2013-08-23 19:26:00,72.0,60.0,29.65,SE,135,2.2,2.9,66,0.00,,,0.00,WUHU216HW,2013-08-24 00:26:00,
2013-08-23 19:31:00,71.6,59.7,29.65,SE,135,2.5,2.9,66,0.00,,,0.00,WUHU216HW,2013-08-24 00:31:00,
2013-08-23 19:36:00,71.3,58.9,29.65,SE,135,2.5,2.5,65,0.00,,,0.00,WUHU216HW,2013-08-24 00:36:00,
2013-08-23 19:41:00,70.7,58.3,29.66,SE,135,1.1,2.5,65,0.00,,,0.00,WUHU216HW,2013-08-24 00:41:00,
2013-08-23 19:46:00,70.4,58.1,29.66,SE,135,1.8,2.5,65,0.00,,,0.00,WUHU216HW,2013-08-24 00:46:00,
2013-08-23 19:51:00,70.2,57.9,29.66,SE,135,1.6,1.8,65,0.00,,,0.00,WUHU216HW,2013-08-24 00:51:00,
2013-08-23 19:56:00,69.8,58.0,29.66,SE,135,1.1,1.8,66,0.00,,,0.00,WUHU216HW,2013-08-24 00:56:00,
2013-08-23 20:01:00,69.7,57.8,29.66,SE,135,1.3,1.3,66,0.00,,,0.00,WUHU216HW,2013-08-24 01:01:00,
2013-08-23 20:06:00,69.5,57.6,29.66,SE,135,1.6,1.6,66,0.00,,,0.00,WUHU216HW,2013-08-24 01:06:00,
2013-08-23 20:11:00,69.3,57.4,29.66,SE,135,2.0,2.0,66,0.00,,,0.00,WUHU216HW,2013-08-24 01:11:00,
2013-08-23 20:16:00,68.9,57.5,29.66,SE,135,2.5,2.5,67,0.00,,,0.00,WUHU216HW,2013-08-24 01:16:00,
2013-08-23 20:21:00,68.4,57.0,29.67,SE,135,1.3,2.5,67,0.00,,,0.00,WUHU216HW,2013-08-24 01:21:00,
2013-08-23 20:26:00,68.2,57.2,29.66,SE,135,1.6,2.5,68,0.00,,,0.00,WUHU216HW,2013-08-24 01:26:00,
2013-08-23 20:31:00,68.0,57.1,29.66,SE,135,1.8,1.8,68,0.00,,,0.00,WUHU216HW,2013-08-24 01:31:00,
2013-08-23 20:36:00,67.9,56.9,29.66,SE,135,1.3,1.8,68,0.00,,,0.00,WUHU216HW,2013-08-24 01:36:00,
2013-08-23 20:41:00,67.7,57.2,29.67,SE,135,1.1,1.8,69,0.00,,,0.00,WUHU216HW,2013-08-24 01:41:00,
2013-08-23 20:46:00,67.5,57.0,29.67,SE,135,1.8,1.8,69,0.00,,,0.00,WUHU216HW,2013-08-24 01:46:00,
2013-08-23 20:51:00,67.3,57.2,29.67,SE,135,2.2,2.2,70,0.00,,,0.00,WUHU216HW,2013-08-24 01:51:00,
2013-08-23 20:56:00,67.1,57.1,29.67,SE,135,1.8,2.2,70,0.00,,,0.00,WUHU216HW,2013-08-24 01:56:00,
2013-08-23 21:01:00,67.0,56.9,29.67,SE,135,2.2,2.2,70,0.00,,,0.00,WUHU216HW,2013-08-24 02:01:00,
2013-08-23 21:05:00,66.6,56.9,29.67,SE,135,1.8,2.5,71,0.00,,,0.00,WUHU216HW,2013-08-24 02:05:00,
2013-08-23 21:10:00,66.2,56.9,29.68,SE,135,1.8,2.5,72,0.00,,,0.00,WUHU216HW,2013-08-24 02:10:00,
2013-08-23 21:15:00,66.2,56.9,29.68,SE,135,1.1,1.8,72,0.00,,,0.00,WUHU216HW,2013-08-24 02:15:00,
2013-08-23 21:20:00,65.9,57.0,29.68,SE,135,1.1,1.8,73,0.00,,,0.00,WUHU216HW,2013-08-24 02:20:00,
2013-08-23 21:26:00,65.9,57.0,29.68,SE,135,1.1,1.6,73,0.00,,,0.00,WUHU216HW,2013-08-24 02:26:00,
2013-08-23 21:30:00,65.7,56.8,29.68,SE,135,1.3,1.3,73,0.00,,,0.00,WUHU216HW,2013-08-24 02:30:00,
2013-08-23 21:36:00,65.5,57.0,29.68,SE,135,1.8,1.8,74,0.00,,,0.00,WUHU216HW,2013-08-24 02:36:00,
2013-08-23 21:41:00,65.3,56.8,29.68,SE,135,1.6,1.8,74,0.00,,,0.00,WUHU216HW,2013-08-24 02:41:00,
2013-08-23 21:46:00,65.0,56.5,29.68,SE,135,1.8,1.8,74,0.00,,,0.00,WUHU216HW,2013-08-24 02:46:00,
2013-08-23 21:51:00,65.0,56.5,29.68,SE,135,2.0,2.0,74,0.00,,,0.00,WUHU216HW,2013-08-24 02:51:00,
2013-08-23 21:56:00,64.8,56.7,29.68,SE,135,1.8,2.0,75,0.00,,,0.00,WUHU216HW,2013-08-24 02:56:00,
2013-08-23 22:01:00,64.4,56.3,29.69,SE,135,1.6,2.0,75,0.00,,,0.00,WUHU216HW,2013-08-24 03:01:00,
2013-08-23 22:06:00,64.4,56.7,29.68,SE,135,1.8,1.8,76,0.00,,,0.00,WUHU216HW,2013-08-24 03:06:00,
2013-08-23 22:11:00,64.3,56.5,29.68,SE,135,1.3,1.8,76,0.00,,,0.00,WUHU216HW,2013-08-24 03:11:00,
2013-08-23 22:16:00,64.1,56.3,29.68,SE,135,1.6,2.0,76,0.00,,,0.00,WUHU216HW,2013-08-24 03:16:00,
2013-08-23 22:21:00,63.9,56.5,29.68,SE,135,1.1,2.0,77,0.00,,,0.00,WUHU216HW,2013-08-24 03:21:00,
2013-08-23 22:26:00,63.7,56.3,29.68,SE,135,1.1,1.6,77,0.00,,,0.00,WUHU216HW,2013-08-24 03:26:00,
2013-08-23 22:30:00,63.7,56.3,29.69,SE,135,1.1,1.3,77,0.00,,,0.00,WUHU216HW,2013-08-24 03:30:00,
2013-08-23 22:35:00,63.5,56.2,29.68,SE,135,0.9,1.3,77,0.00,,,0.00,WUHU216HW,2013-08-24 03:35:00,
2013-08-23 22:40:00,63.4,56.3,29.69,SSW,203,1.8,1.8,78,0.00,,,0.00,WUHU216HW,2013-08-24 03:40:00,
2013-08-23 22:45:00,62.3,55.6,29.69,SSW,203,2.5,2.5,79,0.00,,,0.00,WUHU216HW,2013-08-24 03:45:00,
2013-08-23 22:50:00,62.3,55.6,29.69,SSW,203,1.8,2.5,79,0.00,,,0.00,WUHU216HW,2013-08-24 03:50:00,
2013-08-23 22:55:00,61.9,56.3,29.69,SSW,203,2.5,2.5,82,0.00,,,0.00,WUHU216HW,2013-08-24 03:55:00,
2013-08-23 23:00:00,61.7,55.5,29.69,SSW,203,1.3,2.5,80,0.00,,,0.00,WUHU216HW,2013-08-24 04:00:00,
2013-08-23 23:01:00,61.7,55.5,29.69,SSW,203,1.3,2.5,80,0.00,,,0.00,WUHU216HW,2013-08-24 04:01:00,
2013-08-23 23:06:00,61.9,55.7,29.69,SSW,203,1.6,2.5,80,0.00,,,0.00,WUHU216HW,2013-08-24 04:06:00,
2013-08-23 23:11:00,62.1,55.9,29.69,SSW,203,1.6,1.8,80,0.00,,,0.00,WUHU216HW,2013-08-24 04:11:00,
2013-08-23 23:16:00,62.3,56.0,29.69,SSW,203,1.8,1.8,80,0.00,,,0.00,WUHU216HW,2013-08-24 04:16:00,
2013-08-23 23:21:00,62.3,56.0,29.69,SSE,158,1.8,1.8,80,0.00,,,0.00,WUHU216HW,2013-08-24 04:21:00,
2013-08-23 23:26:00,62.3,56.0,29.69,SSE,158,2.0,2.0,80,0.00,,,0.00,WUHU216HW,2013-08-24 04:26:00,
2013-08-23 23:31:00,62.3,56.0,29.69,SE,135,1.8,2.0,80,0.00,,,0.00,WUHU216HW,2013-08-24 04:31:00,
2013-08-23 23:36:00,62.1,55.9,29.69,SSE,158,1.8,2.0,80,0.00,,,0.00,WUHU216HW,2013-08-24 04:36:00,
2013-08-23 23:41:00,62.1,55.9,29.69,SE,135,1.8,1.8,80,0.00,,,0.00,WUHU216HW,2013-08-24 04:41:00,
2013-08-23 23:46:00,61.9,55.7,29.69,SSE,158,1.6,1.8,80,0.00,,,0.00,WUHU216HW,2013-08-24 04:46:00,
2013-08-23 23:51:00,61.9,55.7,29.69,SSE,158,1.3,1.8,80,0.00,,,0.00,WUHU216HW,2013-08-24 04:51:00,
2013-08-23 23:56:00,61.9,55.7,29.69,South,180,1.3,1.8,80,0.00,,,0.00,WUHU216HW,2013-08-24 04:56:00,